Year,Month,Day,Hour,Minute,Value (Times are PST for temperature in C)
2015,06,26,00,00,17.30
2015,06,26,00,01,17.30
2015,06,26,00,02,17.30
2015,06,26,00,03,17.40
2015,06,26,00,04,17.40
2015,06,26,00,05,17.40
2015,06,26,00,06,17.40
2015,06,26,00,07,17.50
2015,06,26,00,08,17.50
2015,06,26,00,09,17.60
2015,06,26,00,10,17.70
2015,06,26,00,11,17.70
2015,06,26,00,12,17.80
2015,06,26,00,13,17.80
2015,06,26,00,14,17.90
2015,06,26,00,15,17.90
2015,06,26,00,16,17.90
2015,06,26,00,17,18.00
2015,06,26,00,18,18.10
2015,06,26,00,19,18.20
2015,06,26,00,20,18.30
2015,06,26,00,21,18.40
2015,06,26,00,22,18.40
2015,06,26,00,23,18.50
2015,06,26,00,24,18.60
2015,06,26,00,25,18.70
2015,06,26,00,26,18.80
2015,06,26,00,27,18.90
2015,06,26,00,28,18.90
2015,06,26,00,29,19.00
2015,06,26,00,30,19.00
2015,06,26,00,31,19.00
2015,06,26,00,32,19.10
2015,06,26,00,33,19.10
2015,06,26,00,34,19.10
2015,06,26,00,35,19.10
2015,06,26,00,36,19.00
2015,06,26,00,37,19.00
2015,06,26,00,38,19.00
2015,06,26,00,39,19.10
2015,06,26,00,40,19.10
2015,06,26,00,41,19.20
2015,06,26,00,42,19.20
2015,06,26,00,43,19.30
2015,06,26,00,44,19.30
2015,06,26,00,45,19.40
2015,06,26,00,46,19.50
2015,06,26,00,47,19.50
2015,06,26,00,48,19.60
2015,06,26,00,49,19.70
2015,06,26,00,50,19.70
2015,06,26,00,51,19.80
2015,06,26,00,52,19.80
2015,06,26,00,53,19.90
2015,06,26,00,54,19.90
2015,06,26,00,55,19.90
2015,06,26,00,56,20.00
2015,06,26,00,57,20.10
2015,06,26,00,58,20.10
2015,06,26,00,59,20.10
2015,06,26,01,00,20.20
2015,06,26,01,01,20.20
2015,06,26,01,02,20.20
2015,06,26,01,03,20.30
2015,06,26,01,04,20.30
2015,06,26,01,05,20.30
2015,06,26,01,06,20.40
2015,06,26,01,07,20.40
2015,06,26,01,08,20.40
2015,06,26,01,09,20.50
2015,06,26,01,10,20.50
2015,06,26,01,11,20.50
2015,06,26,01,12,20.60
2015,06,26,01,13,20.60
2015,06,26,01,14,20.60
2015,06,26,01,15,20.60
2015,06,26,01,16,20.60
2015,06,26,01,17,20.60
2015,06,26,01,18,20.60
2015,06,26,01,19,20.60
2015,06,26,01,20,20.60
2015,06,26,01,21,20.60
2015,06,26,01,22,20.60
2015,06,26,01,23,20.60
2015,06,26,01,24,20.60
2015,06,26,01,25,20.60
2015,06,26,01,26,20.60
2015,06,26,01,27,20.60
2015,06,26,01,28,20.60
2015,06,26,01,29,20.60
2015,06,26,01,30,20.60
2015,06,26,01,31,20.60
2015,06,26,01,32,20.60
2015,06,26,01,33,20.60
2015,06,26,01,34,20.50
2015,06,26,01,35,20.50
2015,06,26,01,36,20.50
2015,06,26,01,37,20.40
2015,06,26,01,38,20.40
2015,06,26,01,39,20.40
2015,06,26,01,40,20.40
2015,06,26,01,41,20.30
2015,06,26,01,42,20.30
2015,06,26,01,43,20.30
2015,06,26,01,44,20.20
2015,06,26,01,45,20.20
2015,06,26,01,46,20.20
2015,06,26,01,47,20.20
2015,06,26,01,48,20.10
2015,06,26,01,49,20.10
2015,06,26,01,50,20.10
2015,06,26,01,51,20.00
2015,06,26,01,52,20.00
2015,06,26,01,53,19.90
2015,06,26,01,54,19.90
2015,06,26,01,55,19.90
2015,06,26,01,56,19.90
2015,06,26,01,57,19.80
2015,06,26,01,58,19.80
2015,06,26,01,59,19.70
2015,06,26,02,00,19.70
2015,06,26,02,01,19.60
2015,06,26,02,02,19.60
2015,06,26,02,03,19.60
2015,06,26,02,04,19.60
2015,06,26,02,05,19.70
2015,06,26,02,06,19.70
2015,06,26,02,07,19.80
2015,06,26,02,08,19.80
2015,06,26,02,09,19.80
2015,06,26,02,10,19.80
2015,06,26,02,11,19.80
2015,06,26,02,12,19.80
2015,06,26,02,13,19.80
2015,06,26,02,14,19.80
2015,06,26,02,15,19.80
2015,06,26,02,16,19.80
2015,06,26,02,17,19.80
2015,06,26,02,18,19.80
2015,06,26,02,19,19.70
2015,06,26,02,20,19.70
2015,06,26,02,21,19.70
2015,06,26,02,22,19.70
2015,06,26,02,23,19.70
2015,06,26,02,24,19.70
2015,06,26,02,25,19.70
2015,06,26,02,26,19.70
2015,06,26,02,27,19.70
2015,06,26,02,28,19.70
2015,06,26,02,29,19.70
2015,06,26,02,30,19.70
2015,06,26,02,31,19.70
2015,06,26,02,32,19.70
2015,06,26,02,33,19.70
2015,06,26,02,34,19.70
2015,06,26,02,35,19.70
2015,06,26,02,36,19.70
2015,06,26,02,37,19.70
2015,06,26,02,38,19.70
2015,06,26,02,39,19.70
2015,06,26,02,40,19.70
2015,06,26,02,41,19.70
2015,06,26,02,42,19.70
2015,06,26,02,43,19.70
2015,06,26,02,44,19.70
2015,06,26,02,45,19.70
2015,06,26,02,46,19.70
2015,06,26,02,47,19.70
2015,06,26,02,48,19.80
2015,06,26,02,49,19.80
2015,06,26,02,50,19.80
2015,06,26,02,51,19.90
2015,06,26,02,52,19.90
2015,06,26,02,53,19.90
2015,06,26,02,54,20.00
2015,06,26,02,55,20.00
2015,06,26,02,56,20.10
2015,06,26,02,57,20.10
2015,06,26,02,58,20.10
2015,06,26,02,59,20.10
2015,06,26,03,00,20.20
2015,06,26,03,01,20.20
2015,06,26,03,02,20.20
2015,06,26,03,03,20.20
2015,06,26,03,04,20.20
2015,06,26,03,05,20.30
2015,06,26,03,06,20.30
2015,06,26,03,07,20.30
2015,06,26,03,08,20.30
2015,06,26,03,09,20.40
2015,06,26,03,10,20.40
2015,06,26,03,11,20.40
2015,06,26,03,12,20.50
2015,06,26,03,13,20.50
2015,06,26,03,14,20.50
2015,06,26,03,15,20.50
2015,06,26,03,16,20.50
2015,06,26,03,17,20.50
2015,06,26,03,18,20.50
2015,06,26,03,19,20.50
2015,06,26,03,20,20.50
2015,06,26,03,21,20.50
2015,06,26,03,22,20.50
2015,06,26,03,23,20.40
2015,06,26,03,24,20.40
2015,06,26,03,25,20.40
2015,06,26,03,26,20.40
2015,06,26,03,27,20.40
2015,06,26,03,28,20.40
2015,06,26,03,29,20.40
2015,06,26,03,30,20.40
2015,06,26,03,31,20.40
2015,06,26,03,32,20.40
2015,06,26,03,33,20.40
2015,06,26,03,34,20.40
2015,06,26,03,35,20.40
2015,06,26,03,36,20.40
2015,06,26,03,37,20.40
2015,06,26,03,38,20.40
2015,06,26,03,39,20.40
2015,06,26,03,40,20.40
2015,06,26,03,41,20.40
2015,06,26,03,42,20.40
2015,06,26,03,43,20.40
2015,06,26,03,44,20.40
2015,06,26,03,45,20.30
2015,06,26,03,46,20.30
2015,06,26,03,47,20.30
2015,06,26,03,48,20.30
2015,06,26,03,49,20.30
2015,06,26,03,50,20.30
2015,06,26,03,51,20.30
2015,06,26,03,52,20.30
2015,06,26,03,53,20.30
2015,06,26,03,54,20.30
2015,06,26,03,55,20.30
2015,06,26,03,56,20.20
2015,06,26,03,57,20.20
2015,06,26,03,58,20.20
2015,06,26,03,59,20.20
2015,06,26,04,00,20.20
2015,06,26,04,01,20.10
2015,06,26,04,02,20.10
2015,06,26,04,03,20.10
2015,06,26,04,04,20.10
2015,06,26,04,05,20.10
2015,06,26,04,06,20.10
2015,06,26,04,07,20.10
2015,06,26,04,08,20.10
2015,06,26,04,09,20.00
2015,06,26,04,10,20.00
2015,06,26,04,11,20.00
2015,06,26,04,12,20.00
2015,06,26,04,13,20.00
2015,06,26,04,14,20.00
2015,06,26,04,15,19.90
2015,06,26,04,16,19.90
2015,06,26,04,17,19.90
2015,06,26,04,18,19.90
2015,06,26,04,19,19.90
2015,06,26,04,20,19.90
2015,06,26,04,21,19.80
2015,06,26,04,22,19.80
2015,06,26,04,23,19.80
2015,06,26,04,24,19.80
2015,06,26,04,25,19.80
2015,06,26,04,26,19.80
2015,06,26,04,27,19.80
2015,06,26,04,28,19.80
2015,06,26,04,29,19.80
2015,06,26,04,30,19.80
2015,06,26,04,31,19.80
2015,06,26,04,32,19.80
2015,06,26,04,33,19.70
2015,06,26,04,34,19.70
2015,06,26,04,35,19.70
2015,06,26,04,36,19.70
2015,06,26,04,37,19.70
2015,06,26,04,38,19.70
2015,06,26,04,39,19.70
2015,06,26,04,40,19.70
2015,06,26,04,41,19.60
2015,06,26,04,42,19.60
2015,06,26,04,43,19.60
2015,06,26,04,44,19.60
2015,06,26,04,45,19.60
2015,06,26,04,46,19.60
2015,06,26,04,47,19.60
2015,06,26,04,48,19.60
2015,06,26,04,49,19.60
2015,06,26,04,50,19.60
2015,06,26,04,51,19.60
2015,06,26,04,52,19.50
2015,06,26,04,53,19.50
2015,06,26,04,54,19.50
2015,06,26,04,55,19.40
2015,06,26,04,56,19.40
2015,06,26,04,57,19.40
2015,06,26,04,58,19.40
2015,06,26,04,59,19.40
2015,06,26,05,00,19.40
2015,06,26,05,01,19.30
2015,06,26,05,02,19.30
2015,06,26,05,03,19.30
2015,06,26,05,04,19.30
2015,06,26,05,05,19.30
2015,06,26,05,06,19.30
2015,06,26,05,07,19.30
2015,06,26,05,08,19.30
2015,06,26,05,09,19.30
2015,06,26,05,10,19.30
2015,06,26,05,11,19.30
2015,06,26,05,12,19.20
2015,06,26,05,13,19.20
2015,06,26,05,14,19.20
2015,06,26,05,15,19.20
2015,06,26,05,16,19.20
2015,06,26,05,17,19.20
2015,06,26,05,18,19.20
2015,06,26,05,19,19.20
2015,06,26,05,20,19.20
2015,06,26,05,21,19.20
2015,06,26,05,22,19.20
2015,06,26,05,23,19.10
2015,06,26,05,24,19.10
2015,06,26,05,25,19.10
2015,06,26,05,26,19.20
2015,06,26,05,27,19.20
2015,06,26,05,28,19.20
2015,06,26,05,29,19.20
2015,06,26,05,30,19.20
2015,06,26,05,31,19.20
2015,06,26,05,32,19.20
2015,06,26,05,33,19.20
2015,06,26,05,34,19.20
2015,06,26,05,35,19.20
2015,06,26,05,36,19.20
2015,06,26,05,37,19.20
2015,06,26,05,38,19.20
2015,06,26,05,39,19.20
2015,06,26,05,40,19.20
2015,06,26,05,41,19.20
2015,06,26,05,42,19.20
2015,06,26,05,43,19.20
2015,06,26,05,44,19.20
2015,06,26,05,45,19.20
2015,06,26,05,46,19.20
2015,06,26,05,47,19.20
2015,06,26,05,48,19.20
2015,06,26,05,49,19.20
2015,06,26,05,50,19.20
2015,06,26,05,51,19.20
2015,06,26,05,52,19.20
2015,06,26,05,53,19.20
2015,06,26,05,54,19.20
2015,06,26,05,55,19.30
2015,06,26,05,56,19.30
2015,06,26,05,57,19.30
2015,06,26,05,58,19.30
2015,06,26,05,59,19.30
2015,06,26,06,00,19.20
2015,06,26,06,01,19.20
2015,06,26,06,02,19.20
2015,06,26,06,03,19.20
2015,06,26,06,04,19.20
2015,06,26,06,05,19.20
2015,06,26,06,06,19.20
2015,06,26,06,07,19.20
2015,06,26,06,08,19.20
2015,06,26,06,09,19.20
2015,06,26,06,10,19.20
2015,06,26,06,11,19.20
2015,06,26,06,12,19.20
2015,06,26,06,13,19.20
2015,06,26,06,14,19.20
2015,06,26,06,15,19.20
2015,06,26,06,16,19.20
2015,06,26,06,17,19.30
2015,06,26,06,18,19.30
2015,06,26,06,19,19.30
2015,06,26,06,20,19.30
2015,06,26,06,21,19.30
2015,06,26,06,22,19.30
2015,06,26,06,23,19.40
2015,06,26,06,24,19.40
2015,06,26,06,25,19.40
2015,06,26,06,26,19.40
2015,06,26,06,27,19.40
2015,06,26,06,28,19.40
2015,06,26,06,29,19.40
2015,06,26,06,30,19.50
2015,06,26,06,31,19.50
2015,06,26,06,32,19.50
2015,06,26,06,33,19.50
2015,06,26,06,34,19.50
2015,06,26,06,35,19.50
2015,06,26,06,36,19.50
2015,06,26,06,37,19.50
2015,06,26,06,38,19.50
2015,06,26,06,39,19.60
2015,06,26,06,40,19.60
2015,06,26,06,41,19.60
2015,06,26,06,42,19.60
2015,06,26,06,43,19.60
2015,06,26,06,44,19.60
2015,06,26,06,45,19.60
2015,06,26,06,46,19.60
2015,06,26,06,47,19.60
2015,06,26,06,48,19.60
2015,06,26,06,49,19.60
2015,06,26,06,50,19.60
2015,06,26,06,51,19.60
2015,06,26,06,52,19.60
2015,06,26,06,53,19.60
2015,06,26,06,54,19.70
2015,06,26,06,55,19.70
2015,06,26,06,56,19.70
2015,06,26,06,57,19.70
2015,06,26,06,58,19.70
2015,06,26,06,59,19.70
2015,06,26,07,00,19.70
2015,06,26,07,01,19.70
2015,06,26,07,02,19.80
2015,06,26,07,03,19.80
2015,06,26,07,04,19.80
2015,06,26,07,05,19.80
2015,06,26,07,06,19.80
2015,06,26,07,07,19.80
2015,06,26,07,08,19.80
2015,06,26,07,09,19.90
2015,06,26,07,10,19.90
2015,06,26,07,11,19.90
2015,06,26,07,12,19.90
2015,06,26,07,13,19.90
2015,06,26,07,14,19.90
2015,06,26,07,15,19.90
2015,06,26,07,16,19.90
2015,06,26,07,17,19.90
2015,06,26,07,18,20.00
2015,06,26,07,19,20.00
2015,06,26,07,20,20.00
2015,06,26,07,21,20.10
2015,06,26,07,22,20.10
2015,06,26,07,23,20.10
2015,06,26,07,24,20.10
2015,06,26,07,25,20.20
2015,06,26,07,26,20.20
2015,06,26,07,27,20.20
2015,06,26,07,28,20.20
2015,06,26,07,29,20.20
2015,06,26,07,30,20.20
2015,06,26,07,31,20.30
2015,06,26,07,32,20.30
2015,06,26,07,33,20.30
2015,06,26,07,34,20.30
2015,06,26,07,35,20.30
2015,06,26,07,36,20.30
2015,06,26,07,37,20.40
2015,06,26,07,38,20.40
2015,06,26,07,39,20.40
2015,06,26,07,40,20.40
2015,06,26,07,41,20.50
2015,06,26,07,42,20.50
2015,06,26,07,43,20.60
2015,06,26,07,44,20.60
2015,06,26,07,45,20.60
2015,06,26,07,46,20.70
2015,06,26,07,47,20.70
2015,06,26,07,48,20.70
2015,06,26,07,49,20.70
2015,06,26,07,50,20.80
2015,06,26,07,51,20.80
2015,06,26,07,52,20.80
2015,06,26,07,53,20.80
2015,06,26,07,54,20.90
2015,06,26,07,55,20.90
2015,06,26,07,56,21.00
2015,06,26,07,57,21.00
2015,06,26,07,58,21.10
2015,06,26,07,59,21.10
2015,06,26,08,00,21.20
2015,06,26,08,01,21.20
2015,06,26,08,02,21.20
2015,06,26,08,03,21.20
2015,06,26,08,04,21.20
2015,06,26,08,05,21.20
2015,06,26,08,06,21.20
2015,06,26,08,07,21.30
2015,06,26,08,08,21.30
2015,06,26,08,09,21.30
2015,06,26,08,10,21.30
2015,06,26,08,11,21.30
2015,06,26,08,12,21.30
2015,06,26,08,13,21.30
2015,06,26,08,14,21.30
2015,06,26,08,15,21.30
2015,06,26,08,16,21.30
2015,06,26,08,17,21.30
2015,06,26,08,18,21.30
2015,06,26,08,19,21.30
2015,06,26,08,35,22.00
2015,06,26,08,36,22.00
2015,06,26,08,37,22.10
2015,06,26,08,38,22.10
2015,06,26,08,39,22.10
2015,06,26,08,40,22.10
2015,06,26,08,41,22.20
2015,06,26,08,42,22.20
2015,06,26,08,43,22.30
2015,06,26,08,44,22.30
2015,06,26,08,45,22.30
2015,06,26,08,46,22.30
2015,06,26,08,47,22.30
2015,06,26,08,48,22.20
2015,06,26,08,49,22.20
2015,06,26,08,50,22.20
2015,06,26,08,51,22.20
2015,06,26,08,52,22.20
2015,06,26,08,53,22.20
2015,06,26,08,54,22.20
2015,06,26,08,55,22.10
2015,06,26,08,56,22.10
2015,06,26,08,57,22.10
2015,06,26,08,58,22.00
2015,06,26,08,59,22.00
2015,06,26,09,00,21.90
2015,06,26,09,01,21.90
2015,06,26,09,02,21.90
2015,06,26,09,03,21.80
2015,06,26,09,04,21.80
2015,06,26,09,05,21.80
2015,06,26,09,06,21.80
2015,06,26,09,07,21.80
2015,06,26,09,08,21.80
2015,06,26,09,09,21.80
2015,06,26,09,10,21.80
2015,06,26,09,11,21.80
2015,06,26,09,12,21.80
2015,06,26,09,13,21.80
2015,06,26,09,14,21.80
2015,06,26,09,15,21.80
2015,06,26,09,16,21.80
2015,06,26,09,17,21.80
2015,06,26,09,18,21.80
2015,06,26,09,19,21.80
2015,06,26,09,20,21.90
2015,06,26,09,21,21.90
2015,06,26,09,22,21.90
2015,06,26,09,23,21.90
2015,06,26,09,24,21.80
2015,06,26,09,25,21.80
2015,06,26,09,26,21.80
2015,06,26,09,27,21.80
2015,06,26,09,28,21.80
2015,06,26,09,29,21.80
2015,06,26,09,30,21.80
2015,06,26,09,31,21.80
2015,06,26,09,32,21.90
2015,06,26,09,33,21.90
2015,06,26,09,34,21.90
2015,06,26,09,35,21.90
2015,06,26,09,36,21.90
2015,06,26,09,37,21.90
2015,06,26,09,38,21.90
2015,06,26,09,39,22.00
2015,06,26,09,40,22.00
2015,06,26,09,41,22.10
2015,06,26,09,42,22.10
2015,06,26,09,43,22.20
2015,06,26,09,44,22.20
2015,06,26,09,45,22.30
2015,06,26,09,46,22.30
2015,06,26,09,47,22.40
2015,06,26,09,48,22.40
2015,06,26,09,49,22.40
2015,06,26,09,50,22.50
2015,06,26,09,51,22.50
2015,06,26,09,52,22.50
2015,06,26,09,53,22.50
2015,06,26,09,54,22.40
2015,06,26,09,55,22.40
2015,06,26,09,56,22.50
2015,06,26,09,57,22.50
2015,06,26,09,58,22.60
2015,06,26,09,59,22.60
2015,06,26,10,00,22.60
2015,06,26,10,01,22.60
2015,06,26,10,02,22.50
2015,06,26,10,03,22.40
2015,06,26,10,04,22.40
2015,06,26,10,05,22.40
2015,06,26,10,06,22.40
2015,06,26,10,07,22.40
2015,06,26,10,08,22.40
2015,06,26,10,09,22.40
2015,06,26,10,10,22.40
2015,06,26,10,11,22.50
2015,06,26,10,12,22.60
2015,06,26,10,13,22.60
2015,06,26,10,14,22.60
2015,06,26,10,15,22.70
2015,06,26,10,16,22.70
2015,06,26,10,17,22.70
2015,06,26,10,18,22.70
2015,06,26,10,19,22.70
2015,06,26,10,20,22.70
2015,06,26,10,21,22.80
2015,06,26,10,22,22.80
2015,06,26,10,23,22.90
2015,06,26,10,24,22.80
2015,06,26,10,25,22.90
2015,06,26,10,26,22.90
2015,06,26,10,27,23.00
2015,06,26,10,28,23.00
2015,06,26,10,29,23.10
2015,06,26,10,30,23.20
2015,06,26,10,31,23.30
2015,06,26,10,32,23.30
2015,06,26,10,33,23.30
2015,06,26,10,34,23.30
2015,06,26,10,35,23.40
2015,06,26,10,36,23.40
2015,06,26,10,37,23.50
2015,06,26,10,38,23.50
2015,06,26,10,39,23.50
2015,06,26,10,40,23.50
2015,06,26,10,41,23.50
2015,06,26,10,42,23.40
2015,06,26,10,43,23.40
2015,06,26,10,44,23.50
2015,06,26,10,45,23.50
2015,06,26,10,46,23.60
2015,06,26,10,47,23.60
2015,06,26,10,48,23.60
2015,06,26,10,49,23.60
2015,06,26,10,50,23.60
2015,06,26,10,51,23.50
2015,06,26,10,52,23.40
2015,06,26,10,53,23.40
2015,06,26,10,54,23.40
2015,06,26,10,55,23.40
2015,06,26,10,56,23.50
2015,06,26,10,57,23.50
2015,06,26,10,58,23.50
2015,06,26,10,59,23.50
2015,06,26,11,00,23.50
2015,06,26,11,01,23.60
2015,06,26,11,02,23.60
2015,06,26,11,03,23.70
2015,06,26,11,04,23.70
2015,06,26,11,05,23.70
2015,06,26,11,06,23.80
2015,06,26,11,07,23.90
2015,06,26,11,08,24.00
2015,06,26,11,09,24.10
2015,06,26,11,10,24.10
2015,06,26,11,11,24.20
2015,06,26,11,12,24.20
2015,06,26,11,13,24.20
2015,06,26,11,14,24.30
2015,06,26,11,15,24.30
2015,06,26,11,16,24.30
2015,06,26,11,17,24.30
2015,06,26,11,18,24.30
2015,06,26,11,19,24.30
2015,06,26,11,20,24.30
2015,06,26,11,21,24.30
2015,06,26,11,22,24.30
2015,06,26,11,23,24.30
2015,06,26,11,24,24.30
2015,06,26,11,25,24.30
2015,06,26,11,26,24.30
2015,06,26,11,27,24.30
2015,06,26,11,28,24.40
2015,06,26,11,29,24.40
2015,06,26,11,30,24.40
2015,06,26,11,31,24.40
2015,06,26,11,32,24.50
2015,06,26,11,33,24.60
2015,06,26,11,34,24.70
2015,06,26,11,35,24.70
2015,06,26,11,36,24.70
2015,06,26,11,37,24.60
2015,06,26,11,38,24.60
2015,06,26,11,39,24.60
2015,06,26,11,40,24.60
2015,06,26,11,41,24.60
2015,06,26,11,42,24.60
2015,06,26,11,43,24.60
2015,06,26,11,44,24.60
2015,06,26,11,45,24.60
2015,06,26,11,46,24.60
2015,06,26,11,47,24.60
2015,06,26,11,48,24.60
2015,06,26,11,49,24.60
2015,06,26,11,50,24.60
2015,06,26,11,51,24.50
2015,06,26,11,52,24.50
2015,06,26,11,53,24.60
2015,06,26,11,54,24.70
2015,06,26,11,55,24.70
2015,06,26,11,56,24.70
2015,06,26,11,57,24.80
2015,06,26,11,58,24.90
2015,06,26,11,59,25.10
2015,06,26,12,00,25.30
2015,06,26,12,01,25.40
2015,06,26,12,02,25.40
2015,06,26,12,03,25.40
2015,06,26,12,04,25.40
2015,06,26,12,05,25.40
2015,06,26,12,06,25.40
2015,06,26,12,07,25.40
2015,06,26,12,08,25.40
2015,06,26,12,09,25.40
2015,06,26,12,10,25.40
2015,06,26,12,11,25.40
2015,06,26,12,12,25.40
2015,06,26,12,13,25.40
2015,06,26,12,14,25.40
2015,06,26,12,15,25.40
2015,06,26,12,16,25.40
2015,06,26,12,17,25.30
2015,06,26,12,18,25.30
2015,06,26,12,19,25.30
2015,06,26,12,20,25.30
2015,06,26,12,21,25.20
2015,06,26,12,22,25.20
2015,06,26,12,23,25.20
2015,06,26,12,24,25.20
2015,06,26,12,25,25.20
2015,06,26,12,26,25.20
2015,06,26,12,27,25.20
2015,06,26,12,28,25.20
2015,06,26,12,29,25.10
2015,06,26,12,30,25.00
2015,06,26,12,31,25.00
2015,06,26,12,32,25.00
2015,06,26,12,33,25.10
2015,06,26,12,34,25.10
2015,06,26,12,35,25.10
2015,06,26,12,36,25.10
2015,06,26,12,37,25.10
2015,06,26,12,38,25.10
2015,06,26,12,39,25.10
2015,06,26,12,40,25.10
2015,06,26,12,41,25.20
2015,06,26,12,42,25.30
2015,06,26,12,43,25.30
2015,06,26,12,44,25.40
2015,06,26,12,45,25.40
2015,06,26,12,46,25.40
2015,06,26,12,47,25.40
2015,06,26,12,48,25.30
2015,06,26,12,49,25.30
2015,06,26,12,50,25.30
2015,06,26,12,51,25.30
2015,06,26,12,52,25.40
2015,06,26,12,53,25.50
2015,06,26,12,54,25.50
2015,06,26,12,55,25.60
2015,06,26,12,56,25.60
2015,06,26,12,57,25.50
2015,06,26,12,58,25.50
2015,06,26,12,59,25.40
2015,06,26,13,00,25.40
2015,06,26,13,01,25.40
2015,06,26,13,02,25.50
2015,06,26,13,03,25.60
2015,06,26,13,04,25.70
2015,06,26,13,05,25.80
2015,06,26,13,06,25.80
2015,06,26,13,07,25.80
2015,06,26,13,08,25.90
2015,06,26,13,09,25.90
2015,06,26,13,10,25.90
2015,06,26,13,11,25.90
2015,06,26,13,12,25.90
2015,06,26,13,13,25.80
2015,06,26,13,14,25.80
2015,06,26,13,15,25.80
2015,06,26,13,16,25.80
2015,06,26,13,17,25.80
2015,06,26,13,18,25.80
2015,06,26,13,19,25.80
2015,06,26,13,20,25.80
2015,06,26,13,21,25.90
2015,06,26,13,22,25.90
2015,06,26,13,23,25.90
2015,06,26,13,24,25.90
2015,06,26,13,25,25.80
2015,06,26,13,26,25.70
2015,06,26,13,27,25.70
2015,06,26,13,28,25.80
2015,06,26,13,29,25.80
2015,06,26,13,30,25.80
2015,06,26,13,31,25.90
2015,06,26,13,32,26.00
2015,06,26,13,33,26.20
2015,06,26,13,34,26.30
2015,06,26,13,35,26.50
2015,06,26,13,36,26.50
2015,06,26,13,37,26.50
2015,06,26,13,38,26.50
2015,06,26,13,39,26.40
2015,06,26,13,40,26.40
2015,06,26,13,41,26.30
2015,06,26,13,42,26.40
2015,06,26,13,43,26.40
2015,06,26,13,44,26.50
2015,06,26,13,45,26.60
2015,06,26,13,46,26.70
2015,06,26,13,47,26.60
2015,06,26,13,48,26.60
2015,06,26,13,49,26.70
2015,06,26,13,50,26.70
2015,06,26,13,51,26.70
2015,06,26,13,52,26.60
2015,06,26,13,53,26.60
2015,06,26,13,54,26.60
2015,06,26,13,55,26.50
2015,06,26,13,56,26.50
2015,06,26,13,57,26.40
2015,06,26,13,58,26.40
2015,06,26,13,59,26.40
2015,06,26,14,00,26.40
2015,06,26,14,01,26.40
2015,06,26,14,02,26.50
2015,06,26,14,03,26.60
2015,06,26,14,04,26.60
2015,06,26,14,05,26.70
2015,06,26,14,06,26.70
2015,06,26,14,07,26.80
2015,06,26,14,08,26.80
2015,06,26,14,09,26.90
2015,06,26,14,10,26.90
2015,06,26,14,11,26.90
2015,06,26,14,12,27.00
2015,06,26,14,13,27.00
2015,06,26,14,14,27.10
2015,06,26,14,15,27.10
2015,06,26,14,16,27.10
2015,06,26,14,17,27.00
2015,06,26,14,18,27.00
2015,06,26,14,19,26.90
2015,06,26,14,20,26.90
2015,06,26,14,21,26.90
2015,06,26,14,22,27.10
2015,06,26,14,23,27.30
2015,06,26,14,24,27.40
2015,06,26,14,25,27.50
2015,06,26,14,26,27.60
2015,06,26,14,27,27.70
2015,06,26,14,28,27.80
2015,06,26,14,29,27.90
2015,06,26,14,30,27.90
2015,06,26,14,31,28.00
2015,06,26,14,32,28.10
2015,06,26,14,33,28.10
2015,06,26,14,34,28.00
2015,06,26,14,35,27.90
2015,06,26,14,36,27.90
2015,06,26,14,37,27.80
2015,06,26,14,38,27.70
2015,06,26,14,39,27.70
2015,06,26,14,40,27.70
2015,06,26,14,41,27.70
2015,06,26,14,42,27.70
2015,06,26,14,43,27.70
2015,06,26,14,44,27.80
2015,06,26,14,45,27.80
2015,06,26,14,46,27.80
2015,06,26,14,47,27.70
2015,06,26,14,48,27.80
2015,06,26,14,49,27.90
2015,06,26,14,50,27.90
2015,06,26,14,51,28.00
2015,06,26,14,52,28.10
2015,06,26,14,53,28.10
2015,06,26,14,54,28.00
2015,06,26,14,55,27.90
2015,06,26,14,56,27.90
2015,06,26,14,57,27.90
2015,06,26,14,58,27.80
2015,06,26,14,59,27.80
2015,06,26,15,00,27.80
2015,06,26,15,01,27.90
2015,06,26,15,02,27.90
2015,06,26,15,03,27.90
2015,06,26,15,04,27.90
2015,06,26,15,05,27.80
2015,06,26,15,06,27.80
2015,06,26,15,07,27.70
2015,06,26,15,08,27.70
2015,06,26,15,09,27.60
2015,06,26,15,10,27.60
2015,06,26,15,11,27.60
2015,06,26,15,12,27.60
2015,06,26,15,13,27.60
2015,06,26,15,14,27.60
2015,06,26,15,15,27.60
2015,06,26,15,16,27.70
2015,06,26,15,17,27.80
2015,06,26,15,18,28.00
2015,06,26,15,19,28.10
2015,06,26,15,20,28.20
2015,06,26,15,21,28.30
2015,06,26,15,22,28.40
2015,06,26,15,23,28.40
2015,06,26,15,24,28.50
2015,06,26,15,25,28.50
2015,06,26,15,26,28.60
2015,06,26,15,27,28.60
2015,06,26,15,28,28.50
2015,06,26,15,29,28.50
2015,06,26,15,30,28.50
2015,06,26,15,31,28.40
2015,06,26,15,32,28.40
2015,06,26,15,33,28.40
2015,06,26,15,34,28.40
2015,06,26,15,35,28.30
2015,06,26,15,36,28.30
2015,06,26,15,37,28.30
2015,06,26,15,38,28.30
2015,06,26,15,39,28.30
2015,06,26,15,40,28.30
2015,06,26,15,41,28.30
2015,06,26,15,42,28.40
2015,06,26,15,43,28.50
2015,06,26,15,44,28.50
2015,06,26,15,45,28.60
2015,06,26,15,46,28.60
2015,06,26,15,47,28.60
2015,06,26,15,48,28.60
2015,06,26,15,49,28.60
2015,06,26,15,50,28.50
2015,06,26,15,51,28.50
2015,06,26,15,52,28.60
2015,06,26,15,53,28.60
2015,06,26,15,54,28.60
2015,06,26,15,55,28.70
2015,06,26,15,56,28.60
2015,06,26,15,57,28.60
2015,06,26,15,58,28.60
2015,06,26,15,59,28.60
2015,06,26,16,00,28.50
2015,06,26,16,01,28.40
2015,06,26,16,02,28.40
2015,06,26,16,03,28.50
2015,06,26,16,04,28.60
2015,06,26,16,05,28.70
2015,06,26,16,06,28.80
2015,06,26,16,07,28.80
2015,06,26,16,08,28.80
2015,06,26,16,09,28.80
2015,06,26,16,10,28.80
2015,06,26,16,11,28.80
2015,06,26,16,12,28.70
2015,06,26,16,13,28.70
2015,06,26,16,14,28.70
2015,06,26,16,15,28.80
2015,06,26,16,16,28.80
2015,06,26,16,17,28.90
2015,06,26,16,18,28.90
2015,06,26,16,19,28.90
2015,06,26,16,20,28.80
2015,06,26,16,21,28.80
2015,06,26,16,22,28.80
2015,06,26,16,23,28.90
2015,06,26,16,24,29.00
2015,06,26,16,25,29.00
2015,06,26,16,26,29.00
2015,06,26,16,27,29.00
2015,06,26,16,28,29.00
2015,06,26,16,29,29.00
2015,06,26,16,30,29.00
2015,06,26,16,31,29.00
2015,06,26,16,32,29.10
2015,06,26,16,33,29.10
2015,06,26,16,34,29.20
2015,06,26,16,35,29.30
2015,06,26,16,36,29.40
2015,06,26,16,37,29.60
2015,06,26,16,38,29.70
2015,06,26,16,39,29.70
2015,06,26,16,40,29.80
2015,06,26,16,41,29.90
2015,06,26,16,42,29.90
2015,06,26,16,43,29.80
2015,06,26,16,44,29.70
2015,06,26,16,45,29.70
2015,06,26,16,46,29.60
2015,06,26,16,47,29.60
2015,06,26,16,48,29.60
2015,06,26,16,49,29.50
2015,06,26,16,50,29.50
2015,06,26,16,51,29.40
2015,06,26,16,52,29.40
2015,06,26,16,53,29.40
2015,06,26,16,54,29.30
2015,06,26,16,55,29.30
2015,06,26,16,56,29.30
2015,06,26,16,57,29.30
2015,06,26,16,58,29.30
2015,06,26,16,59,29.30
2015,06,26,17,00,29.30
2015,06,26,17,01,29.40
2015,06,26,17,02,29.40
2015,06,26,17,03,29.40
2015,06,26,17,04,29.40
2015,06,26,17,05,29.40
2015,06,26,17,06,29.40
2015,06,26,17,07,29.40
2015,06,26,17,08,29.40
2015,06,26,17,09,29.50
2015,06,26,17,10,29.60
2015,06,26,17,11,29.60
2015,06,26,17,12,29.50
2015,06,26,17,13,29.50
2015,06,26,17,14,29.50
2015,06,26,17,15,29.50
2015,06,26,17,16,29.60
2015,06,26,17,17,29.60
2015,06,26,17,18,29.70
2015,06,26,17,19,29.70
2015,06,26,17,20,29.70
2015,06,26,17,21,29.80
2015,06,26,17,22,29.80
2015,06,26,17,23,29.80
2015,06,26,17,24,29.80
2015,06,26,17,25,29.80
2015,06,26,17,26,29.70
2015,06,26,17,27,29.70
2015,06,26,17,28,29.80
2015,06,26,17,29,29.80
2015,06,26,17,30,29.90
2015,06,26,17,31,29.90
2015,06,26,17,32,29.90
2015,06,26,17,33,29.90
2015,06,26,17,34,29.90